Location: Arbon
(43.0005°N, 0.7472°E)
Time: 22:56:30
(UTC+00:00)

A-11 Canister half - Visible Passes

Search period start: 05 December 2020 00:00
Search period end: 15 December 2020 00:00
Orbit: 1525 x 1684 km, 47.3° (Epoch: 05 December)

Date Brightness Start Highest point End Pass type
(mag) Time Alt. Az. Time Alt. Az. Time Alt. Az.
05 Dec 10.1 02:47:24 36° SE 02:47:24 36° SE 02:55:36 10° ENE visible
05 Dec 9.1 04:45:44 34° WSW 04:51:07 85° SSE 05:01:14 10° ENE visible
06 Dec 10.3 02:27:27 31° ESE 02:27:27 31° ESE 02:33:52 10° ENE visible
06 Dec 9.1 04:25:47 47° SW 04:29:25 83° SSE 04:39:32 10° ENE visible
06 Dec 9.2 06:24:56 10° W 06:35:06 70° N 06:45:04 10° E visible
07 Dec 10.6 02:07:24 25° E 02:07:24 25° E 02:12:06 10° ENE visible
07 Dec 9.1 04:05:43 63° SW 04:07:44 81° SSE 04:17:51 10° ENE visible
07 Dec 9.2 06:04:03 13° W 06:13:23 70° N 06:23:22 10° E visible
08 Dec 10.9 01:47:16 20° E 01:47:16 20° E 01:50:19 10° ENE visible
08 Dec 9.0 03:45:35 77° S 03:46:03 79° SSE 03:56:11 10° ENE visible
08 Dec 9.2 05:43:54 20° W 05:51:39 70° N 06:01:40 10° ENE visible
09 Dec 11.1 01:27:03 14° E 01:27:03 14° E 01:28:33 10° ENE visible
09 Dec 9.2 03:25:22 71° ESE 03:25:22 71° ESE 03:34:29 10° ENE visible
09 Dec 9.2 05:23:41 27° W 05:29:55 71° N 05:39:58 10° ENE visible
10 Dec 9.5 03:05:06 57° E 03:05:06 57° E 03:12:48 10° ENE visible
10 Dec 9.1 05:03:24 37° W 05:08:12 71° N 05:18:16 10° ENE visible
11 Dec 9.9 02:44:47 44° ENE 02:44:47 44° ENE 02:51:07 10° ENE visible
11 Dec 9.1 04:43:06 48° WNW 04:46:28 72° N 04:56:34 10° ENE visible
11 Dec 9.3 06:42:13 10° WNW 06:52:27 78° NNE 07:02:25 10° ESE visible
12 Dec 10.3 02:24:26 34° ENE 02:24:26 34° ENE 02:29:25 10° ENE visible
12 Dec 9.0 04:22:44 60° WNW 04:24:44 73° N 04:34:52 10° ENE visible
12 Dec 9.2 06:21:02 12° WNW 06:30:44 77° NNE 06:40:44 10° ESE visible
13 Dec 10.6 02:04:02 26° ENE 02:04:02 26° ENE 02:07:43 10° ENE visible
13 Dec 9.0 04:02:21 72° NW 04:03:00 74° NNW 04:13:09 10° ENE visible
13 Dec 9.2 06:00:39 17° WNW 06:09:01 76° NNE 06:19:02 10° E visible
14 Dec 10.9 01:43:38 20° ENE 01:43:38 20° ENE 01:46:01 10° ENE visible
14 Dec 9.1 03:41:56 72° NNE 03:41:56 72° NNE 03:51:27 10° ENE visible
14 Dec 9.2 05:40:14 23° WNW 05:47:18 75° NNE 05:57:20 10° E visible
